Location: Unspecified
(0.0000°N, 0.0000°E)
Time: 13:59:44
(UTC+00:00)

Envisat - Pass Details

Date: 27 November 2021
Orbit: 764 x 766 km, 98.2° (Epoch: 07 December)

Event Time Altitude Azimuth Distance (km) Brightness Sun altitude
Rises 05:04:34 0° 357° (N) 3,212 6.0 -10.0°
Reaches altitude 10° 05:06:59 10° 350° (N) 2,289 5.2 -9.5°
Maximum altitude 05:11:39 39° 282° (WNW) 1,137 3.4 -8.4°
Drops below altitude 10° 05:16:21 10° 214° (SW) 2,299 5.4 -7.3°
Sets 05:18:47 0° 206° (SSW) 3,228 6.2 -6.7°
